RH
88 87 85 83 81 77 72 67 63 61 59 56 53 50 47 43 42 41 41 42 42 41 38 34 31 27 25 23 23 23 24 25 25 26 26 26 26 27 27 29 32 34 37 38 38 37 37 41 50 58 62 62 57 50 42 41 43 51 65 73 75 75 76 79 81 82 82 82 85 89 92 93 94 94 95 95 95 95 95 95 95 95 94 94 94 95
89 86 85 81 77 72 66 62 59 57 56 53 50 47 44 43 43 44 45 46 45 43 39 36 33 30 27 25 23 23 23 24 25 25 26 26 27 27 29 30 33 36 39 40 39 38 39 43 48 52 52 48 43 39 39 41 45 50 56 58 62 65 70 74 76 77 76 77 80 83 87 91 93 94 94 94 94 95 94 94 94 94 94 94 95 96
88 87 86 82 77 71 65 60 57 55 53 51 49 47 45 44 45 47 49 48 46 43 40 38 36 34 31 27 24 23 22 23 24 25 26 27 27 28 30 32 34 37 40 42 41 39 39 42 44 44 43 38 35 34 36 40 44 49 51 52 55 60 65 70 72 72 72 73 73 75 82 90 93 94 94 94 94 94 94 94 94 95 95 95 95 95
86 86 86 81 76 71 65 61 58 56 54 52 50 49 48 49 51 52 53 51 48 45 43 42 40 38 35 31 27 24 23 24 25 26 27 28 29 30 31 33 35 38 42 43 42 41 40 43 43 42 38 33 31 31 33 36 42 47 50 52 55 58 60 65 67 68 69 69 72 78 87 92 93 94 94 94 94 94 94 94 94 94 94 94 94 94
86 87 85 81 76 71 65 62 60 59 58 56 54 54 55 57 59 60 60 58 55 53 51 49 47 45 42 37 32 28 26 26 26 27 28 29 30 31 33 35 37 40 43 44 43 41 41 43 42 39 35 32 31 30 30 32 38 44 49 53 56 58 60 61 63 65 66 68 75 84 93 94 94 94 94 94 94 94 94 94 94 94 94 94 93 93
87 86 84 80 76 71 67 65 65 65 64 63 63 63 66 68 71 72 72 70 69 68 66 64 61 58 53 47 40 34 30 28 28 29 30 31 32 33 35 37 39 42 45 44 43 42 42 41 39 36 34 33 31 31 30 31 34 38 44 50 54 57 58 60 62 64 66 70 79 88 93 94 94 94 94 93 93 94 94 94 94 94 94 94 94 94
88 84 80 77 75 73 71 70 71 72 71 71 72 74 77 79 80 81 80 80 80 80 80 81 79 76 71 63 55 47 41 37 34 33 33 34 35 36 37 39 42 45 47 46 45 44 43 42 40 37 35 33 32 31 31 31 33 35 37 42 46 50 52 55 59 62 64 77 86 92 93 94 94 94 94 93 93 93 94 94 94 94 94 94 94 94
86 81 77 75 74 73 73 73 74 75 76 78 80 82 85 85 85 84 82 82 83 84 85 88 88 86 85 80 73 66 59 52 46 42 40 40 40 40 41 43 47 49 50 49 48 47 45 43 41 39 36 34 32 31 31 31 32 33 35 37 40 43 45 48 53 59 66 78 88 93 94 94 94 94 94 93 93 93 93 93 93 93 94 94 94 94
84 79 74 73 74 75 75 76 77 78 80 83 85 87 88 88 87 85 84 83 83 83 83 83 83 84 85 86 83 78 71 65 58 51 46 45 45 45 46 48 51 53 54 53 51 50 48 46 43 40 36 34 32 31 31 31 32 33 35 37 39 41 44 49 56 63 70 79 87 93 93 94 94 94 94 93 93 93 93 92 93 93 93 94 94 94
79 76 74 75 77 79 80 81 81 82 84 86 89 90 91 90 89 88 88 84 83 83 82 80 79 78 79 84 86 85 81 74 67 58 51 47 45 45 47 51 54 56 57 57 55 54 52 49 46 41 37 34 32 31 31 32 33 34 36 38 40 44 51 59 65 70 78 87 91 93 93 94 94 94 93 92 92 92 93 93 94 94 93 94 94 94
76 75 75 78 80 82 84 84 85 85 88 90 92 93 93 91 89 87 85 81 81 81 82 82 81 80 82 86 89 90 88 82 74 67 60 54 50 48 49 52 55 58 60 60 60 59 57 54 49 43 37 34 33 33 33 34 35 36 38 40 44 51 60 66 70 76 88 92 93 93 93 94 93 93 92 92 93 93 93 94 94 94 94 94 93 94
73 75 78 82 84 85 87 88 89 90 92 92 91 88 83 83 81 79 78 77 77 79 82 85 87 88 89 92 93 93 93 88 81 75 69 66 62 59 58 59 60 62 63 64 64 64 62 58 51 44 38 35 35 35 37 37 38 39 40 43 50 59 66 68 74 82 91 92 93 93 93 93 93 93 93 93 94 94 94 95 94 94 93 93 93 93
75 79 84 86 88 89 90 91 92 92 90 85 82 80 78 77 76 76 77 80 82 85 89 92 93 93 94 94 94 94 94 91 86 82 78 76 73 70 69 70 70 69 68 68 68 68 66 60 52 45 39 38 39 40 41 42 42 43 44 51 58 64 68 71 78 86 92 92 92 92 92 91 91 91 91 92 94 94 94 94 94 93 93 92 92 92
81 86 88 90 92 92 91 88 87 85 84 79 78 79 80 79 79 81 84 89 92 93 94 94 95 95 94 94 93 92 93 92 90 88 86 84 81 78 78 80 79 77 74 73 72 71 68 61 53 46 41 42 43 44 45 45 45 46 49 57 62 66 69 77 85 91 92 92 92 91 89 85 82 80 80 85 88 91 92 91 90 89 88 89 91 92
89 91 92 93 93 93 90 87 86 85 85 84 84 84 82 82 84 88 92 94 94 95 95 95 95 95 94 94 90 87 90 91 92 91 91 90 88 87 86 88 87 85 80 79 77 74 68 59 52 47 44 44 44 45 46 47 47 49 54 60 64 68 74 84 90 93 93 91 88 84 79 76 74 73 73 77 80 83 84 83 82 84 87 92 92 91
93 95 96 97 97 96 94 91 90 89 87 85 83 82 82 85 89 93 95 95 95 95 95 95 95 95 95 93 91 90 92 92 93 93 92 93 93 92 91 92 91 89 86 84 80 74 65 56 49 46 44 43 43 44 46 48 50 53 58 62 67 72 79 89 92 91 88 83 78 74 71 70 69 70 70 72 74 76 77 78 79 81 84 85 87 88
97 98 98 98 97 97 96 93 91 89 85 83 82 83 87 92 94 95 95 95 95 95 95 95 95 95 95 94 93 92 92 93 94 94 93 94 94 94 93 93 92 91 89 85 79 70 59 52 47 45 43 42 42 44 48 50 52 56 60 65 70 75 79 84 85 81 75 71 68 67 66 65 64 64 65 65 69 72 71 74 75 76 77 80 81 81
98 98 97 96 96 96 96 96 92 86 82 82 84 89 94 95 95 95 95 94 94 94 94 95 95 95 95 95 94 93 92 93 93 95 95 95 94 94 94 93 92 91 90 83 74 63 54 50 47 45 43 42 43 45 49 52 56 60 64 68 70 71 71 69 67 65 63 62 61 60 59 56 53 52 51 54 56 58 60 63 66 67 68 69 71 74
97 97 97 97 97 97 95 89 84 80 79 84 90 94 95 95 95 95 94 94 95 95 95 95 95 95 95 95 95 93 91 90 91 93 95 95 95 94 93 93 93 91 88 79 68 58 52 50 48 46 44 44 45 48 52 57 61 65 68 68 66 63 61 59 58 57 56 54 51 47 43 42 42 43 45 47 49 51 53 55 57 60 61 62 66 70
96 96 95 96 95 93 88 83 80 81 84 91 94 95 95 95 95 95 95 95 94 94 95 95 95 95 95 95 94 93 92 92 94 95 95 95 94 94 93 93 92 89 85 73 63 57 55 54 52 50 47 47 49 52 56 61 66 68 69 64 56 49 46 45 45 44 43 39 37 35 34 34 35 36 38 41 43 46 48 51 53 55 58 58 61 64
95 96 96 95 91 87 84 81 82 86 91 94 96 96 96 96 95 95 95 95 95 95 95 95 95 95 95 95 95 94 94 94 95 94 95 94 94 93 93 93 91 86 78 68 62 58 58 56 53 51 49 50 52 56 61 65 67 66 61 52 45 41 38 36 33 31 30 30 29 28 28 29 31 34 36 40 43 46 50 52 55 57 59 59 60 60
94 95 93 90 86 83 81 82 86 90 93 95 96 96 96 96 95 95 95 95 95 95 95 95 95 95 95 94 94 94 94 95 95 94 94 94 94 93 92 91 86 80 73 66 62 59 58 55 53 51 51 53 56 60 66 66 63 59 52 46 42 39 36 33 30 27 25 25 25 26 27 30 33 37 41 45 49 52 55 58 60 61 61 62 62 62
90 89 85 83 80 77 80 86 88 90 94 95 96 95 95 95 95 95 95 94 94 94 94 93 90 86 84 85 87 90 91 91 92 93 94 94 93 93 91 87 81 74 69 66 63 60 58 55 54 54 56 58 60 63 65 64 60 55 49 45 41 38 35 32 29 27 26 26 27 29 31 35 39 44 49 53 56 59 61 63 64 64 64 64 63 62
84 85 82 84 83 83 89 92 94 95 96 96 95 95 95 94 94 94 94 94 94 93 93 90 83 77 74 76 81 86 89 88 89 90 93 93 93 91 87 81 75 71 69 67 64 62 60 59 58 59 60 61 61 62 62 60 56 52 47 43 41 39 36 33 31 30 29 30 32 34 38 42 47 53 57 61 63 65 66 66 66 66 65 64 63 62
85 89 92 93 94 94 95 96 96 95 95 94 92 91 89 91 93 94 94 94 93 93 93 90 88 86 85 89 92 93 92 91 91 92 94 93 91 86 79 75 74 73 73 69 67 66 66 63 61 61 61 62 62 61 60 58 55 51 46 43 41 39 37 35 34 33 33 34 37 41 45 51 56 60 64 66 67 68 68 68 67 66 65 64 63 61
88 91 93 93 94 95 95 95 95 94 92 87 84 83 82 88 91 93 92 93 93 93 93 94 94 94 93 92 92 93 93 92 93 93 93 90 84 76 71 72 75 77 78 74 72 70 68 66 64 63 64 63 62 60 58 57 54 50 45 42 40 39 38 36 35 35 36 39 42 47 53 59 63 66 68 68 68 68 68 68 67 67 66 65 63 62
92 93 94 94 94 95 95 95 94 94 92 91 89 86 83 85 87 89 90 91 92 93 93 94 94 94 93 91 92 93 94 93 93 92 89 82 75 70 71 75 79 82 82 78 74 71 69 67 66 65 66 64 61 58 56 55 52 48 43 40 39 38 38 37 36 37 38 42 47 53 59 64 68 69 70 69 69 69 68 68 67 67 67 66 65 64
93 93 93 93 94 94 95 94 93 93 91 90 88 86 83 79 79 81 84 86 89 92 94 94 94 94 94 94 94 94 93 93 92 89 84 76 72 72 77 81 84 86 85 81 76 71 68 67 67 66 66 63 60 57 55 53 51 47 42 39 38 38 38 37 36 37 40 45 51 58 64 67 69 70 69 69 69 68 68 67 67 68 68 69 69 68
91 91 93 93 93 92 91 89 87 85 83 82 81 78 73 70 71 75 79 81 86 91 93 93 93 93 94 94 94 93 93 93 90 86 79 74 74 77 83 86 88 88 87 83 78 73 68 66 66 66 64 61 59 57 56 54 52 48 43 39 38 38 37 36 36 38 41 47 54 60 65 68 68 68 68 68 67 67 66 67 68 70 73 74 75 74
86 87 89 88 87 85 84 83 81 78 75 72 68 64 61 63 68 73 77 79 82 86 90 92 93 93 94 94 93 93 93 92 89 84 79 77 80 85 87 88 88 88 87 86 84 80 74 68 65 64 64 63 62 60 58 57 54 51 45 41 39 38 37 36 36 38 43 49 55 61 65 66 66 66 65 65 65 65 65 67 70 75 79 81 81 79
81 82 83 79 76 75 76 79 80 78 72 63 56 52 55 62 69 75 78 77 77 80 86 90 92 93 93 93 93 92 92 92 89 86 82 83 85 87 87 88 88 87 87 89 88 86 84 76 69 65 65 65 64 62 60 59 58 55 50 45 42 39 37 36 37 40 45 51 56 60 63 63 63 63 63 63 63 64 66 69 74 79 85 86 85 83
75 76 74 65 60 58 61 70 76 79 75 67 60 55 56 62 68 73 75 75 75 77 85 89 91 93 93 93 92 92 92 92 90 88 85 86 85 85 86 87 87 86 87 89 90 89 90 85 77 70 67 66 64 62 60 60 60 59 55 50 45 40 37 37 39 43 49 54 57 60 61 61 61 61 62 63 64 66 68 72 78 84 89 90 89 88
58 58 55 49 47 48 53 63 71 76 76 76 74 69 62 62 64 67 69 71 73 77 85 89 92 93 93 93 92 92 92 91 91 89 85 83 81 81 84 85 86 87 87 88 89 90 91 89 84 78 73 68 64 62 61 61 61 61 58 54 49 43 38 39 42 48 54 58 60 60 60 61 62 63 64 66 68 71 74 77 82 86 90 92 91 91
44 44 43 45 48 52 57 62 66 69 72 78 79 76 70 67 66 66 68 71 75 80 87 91 93 93 93 92 92 91 91 91 90 87 82 78 77 77 79 83 85 87 88 88 89 89 90 89 87 83 78 69 63 60 61 63 63 61 59 56 52 46 40 42 47 53 59 61 63 63 64 65 67 68 69 72 74 77 79 82 85 88 91 92 92 92
44 45 46 51 56 60 62 61 61 64 68 72 74 74 73 71 71 71 73 76 80 85 90 92 93 93 92 91 90 89 89 90 88 84 77 75 73 74 76 80 83 85 88 89 90 90 90 88 87 86 83 75 66 60 60 62 62 61 57 55 51 47 43 46 51 58 64 66 67 68 70 73 75 76 77 79 81 83 85 86 88 90 91 92 93 93
48 50 52 57 60 62 61 59 59 61 64 66 68 71 73 75 76 77 78 81 85 89 92 93 93 92 91 90 88 86 85 85 83 79 75 73 71 72 75 76 78 82 86 89 90 90 90 88 86 85 83 80 73 66 60 59 58 58 55 52 48 45 44 49 56 63 68 70 72 75 77 81 83 84 84 85 85 86 87 89 90 91 92 93 93 93
53 55 57 59 60 60 58 57 59 61 64 66 68 70 73 76 78 80 82 84 87 90 93 93 92 91 89 87 85 84 84 82 80 78 76 73 70 69 71 71 75 80 84 87 89 90 90 88 86 84 81 81 78 73 67 61 59 57 55 50 46 44 45 53 60 67 72 75 77 80 84 86 87 87 87 87 87 88 89 90 91 92 93 93 93 93
59 60 60 60 60 59 58 60 62 65 68 70 71 72 73 76 80 82 84 86 88 91 93 92 91 89 88 86 85 85 84 83 81 78 76 73 70 69 70 69 71 74 78 82 85 87 88 88 88 86 84 80 76 73 70 68 66 62 55 48 44 45 49 57 64 70 75 78 82 85 88 89 89 89 88 89 89 89 90 90 92 93 93 93 93 93
65 65 63 62 61 62 63 65 68 71 73 75 76 76 76 78 81 84 87 88 89 91 92 91 90 89 88 87 86 85 84 82 80 77 75 73 72 71 71 71 71 71 73 74 76 79 84 86 88 88 88 84 77 72 68 70 70 65 56 47 44 46 53 61 68 74 79 83 87 89 89 89 89 89 90 91 91 92 92 92 93 93 93 92 91 92
69 68 66 65 65 66 67 70 73 76 81 83 82 80 80 83 85 87 89 89 90 91 92 91 90 89 88 87 85 84 82 80 79 77 76 75 74 74 74 74 73 73 72 70 70 71 76 80 82 83 85 85 81 77 73 71 68 63 56 51 49 51 57 65 71 77 83 88 90 91 91 90 90 90 92 93 93 93 93 93 94 94 94 94 93 92
72 71 70 68 68 69 70 73 77 81 86 87 86 85 85 87 89 90 92 91 92 92 91 91 89 88 87 85 84 82 80 79 78 77 76 76 75 75 75 75 74 73 71 68 65 64 66 72 76 78 80 82 81 79 75 68 63 58 56 55 56 58 62 69 76 82 88 90 91 91 91 91 91 91 92 93 93 93 93 94 94 94 94 94 94 94
76 75 73 73 73 73 75 79 83 86 88 88 88 88 89 90 91 92 92 92 92 91 91 90 89 88 86 87 87 85 82 79 77 76 75 75 75 75 74 74 72 70 67 63 60 59 60 66 71 75 77 78 79 76 68 60 54 52 53 56 59 63 66 72 79 86 90 91 91 92 92 92 92 92 93 93 94 94 94 94 94 94 94 94 94 94
79 78 77 77 77 79 82 87 89 90 90 89 89 90 91 92 92 92 92 92 92 91 90 89 88 88 88 90 90 89 85 78 75 73 73 73 73 72 71 69 66 64 61 61 60 60 59 63 67 71 72 73 73 71 64 54 50 49 51 56 63 71 76 79 83 87 90 91 92 92 92 92 93 93 93 94 94 94 94 94 94 94 94 94 94 94
82 81 81 81 82 85 89 90 91 91 90 89 90 91 92 92 92 92 92 92 91 91 90 88 87 87 89 90 90 88 83 78 74 72 71 71 70 68 66 63 61 60 59 64 67 67 64 64 64 66 67 66 65 62 56 51 49 50 53 59 67 76 83 86 88 90 90 91 92 92 92 93 93 93 93 94 94 94 94 94 94 94 94 94 94 94
84 85 85 86 87 89 91 91 91 90 89 90 91 92 92 92 92 92 92 91 91 91 89 87 87 88 90 90 87 83 77 76 76 76 75 72 68 66 64 63 62 62 63 67 70 72 72 69 65 62 60 59 57 55 53 51 51 53 57 63 71 78 84 88 90 91 92 92 92 92 92 93 93 93 92 93 93 94 94 94 94 94 94 94 94 94
87 88 89 89 90 90 91 91 91 90 90 91 92 92 92 92 91 91 91 91 91 90 88 86 87 89 91 89 85 81 76 75 76 76 75 71 68 66 65 66 68 68 69 69 70 71 72 69 65 60 55 53 51 51 51 53 56 59 63 70 76 81 85 88 91 92 92 92 92 93 93 93 92 92 91 91 92 93 94 94 94 94 94 94 94 94
86 89 90 91 91 91 91 91 91 91 91 92 92 92 91 91 91 91 91 91 90 89 88 87 88 90 90 89 87 84 81 80 78 75 71 68 65 64 66 67 69 70 72 71 70 69 68 66 63 60 56 53 50 49 49 53 59 65 71 76 80 84 87 89 91 92 92 92 92 93 93 92 92 91 90 89 89 90 91 93 93 94 94 94 94 94
85 89 91 91 92 92 92 91 90 89 90 91 91 91 91 91 91 91 91 90 89 88 89 89 89 88 88 87 86 85 84 84 82 78 75 71 68 65 65 67 69 70 70 70 69 68 66 64 61 58 55 52 51 50 50 55 61 69 76 80 84 86 88 90 92 92 92 92 92 92 93 93 93 92 90 88 87 87 88 90 91 93 93 94 94 94
85 89 91 92 92 92 92 90 89 89 89 89 90 90 91 91 91 91 91 89 88 88 90 89 85 82 82 82 83 83 84 84 82 81 79 76 72 68 68 69 69 69 68 66 64 63 62 62 61 58 55 52 52 52 53 59 65 72 78 82 85 88 90 91 92 92 93 93 93 93 93 93 93 93 93 91 90 89 88 89 90 91 92 93 94 94
86 89 91 91 92 92 92 90 89 88 89 88 88 89 90 90 90 90 90 89 89 89 90 86 81 76 74 76 79 82 84 84 83 82 81 78 74 72 71 73 72 69 66 62 61 60 60 63 63 61 58 53 51 53 57 62 68 74 79 83 86 89 90 91 92 93 93 93 93 93 93 93 93 93 93 93 92 91 90 90 91 92 92 93 93 94
87 90 91 91 92 92 91 90 90 89 89 88 88 89 90 90 90 90 90 90 90 89 88 82 77 73 73 76 79 82 84 84 84 84 82 78 76 75 76 77 75 72 68 65 64 64 64 65 66 66 63 56 53 53 60 66 72 77 82 85 87 89 90 90 91 92 93 93 93 93 93 93 94 94 94 93 93 93 92 92 92 92 93 93 94 93
Wind_Speed
25 23 22 21 21 22 22 22 23 25 26 27 28 30 32 34 36 37 37 37 35 34 33 32 31 30 29 28 27 26 26 25 25 24 24 23 22 22 21 21 21 20 20 21 21 22 22 22 22 22 24 25 27 29 31 31 31 30 29 28 28 28 28 28 28 28 29 29 29 28 28 27 27 26 26 26 26 26 26 26 26 26 26 26 27 27
24 24 23 23 24 24 24 24 25 26 29 30 31 32 34 36 37 37 37 36 34 33 32 31 30 29 29 28 27 26 26 25 25 24 23 23 22 21 21 21 21 21 21 21 22 23 23 22 23 23 25 27 29 30 31 32 31 30 29 29 29 28 28 28 28 29 29 29 29 28 27 27 26 26 26 26 26 26 26 26 26 26 26 27 28 28
23 23 24 25 26 27 27 27 27 29 30 32 34 35 36 37 37 37 36 35 33 32 30 30 29 29 28 28 27 27 26 25 25 24 23 23 22 21 21 21 21 21 21 22 23 23 23 23 23 24 26 28 29 31 31 31 31 31 30 29 29 28 28 28 29 29 30 30 29 28 27 26 26 25 25 26 26 26 26 26 26 27 27 28 28 29
23 24 24 26 27 28 29 29 30 31 33 34 35 36 37 37 36 36 36 34 33 32 30 29 29 29 29 29 28 27 26 25 24 24 23 22 22 21 21 21 21 21 21 22 23 23 23 23 24 25 27 28 30 31 31 31 31 31 30 30 29 29 29 29 30 30 30 30 29 28 26 26 25 25 25 26 26 26 26 26 26 27 27 27 27 27
24 25 25 27 28 29 30 30 31 33 34 35 36 36 36 35 35 34 34 33 32 31 30 30 29 29 29 29 28 27 26 24 24 23 22 22 21 21 21 21 21 21 22 22 23 23 22 23 24 25 27 29 30 31 31 31 31 30 30 30 30 30 30 31 31 31 31 30 28 26 25 25 25 25 25 26 26 26 26 26 27 26 26 26 26 26
25 26 26 27 28 29 30 31 31 32 33 33 34 33 33 32 31 31 31 30 30 30 30 29 29 29 29 29 28 27 26 24 23 23 22 21 21 21 20 20 20 21 21 22 22 21 22 23 24 26 27 29 30 31 31 30 30 30 30 30 31 31 31 32 32 31 30 29 27 26 25 25 25 25 25 26 26 26 26 26 26 26 26 25 25 25
26 27 28 29 29 29 29 29 29 29 28 29 29 29 29 28 27 27 26 26 27 28 28 27 27 27 27 27 27 27 26 25 24 23 22 21 21 20 20 20 20 20 20 21 20 21 21 23 24 26 27 29 29 30 30 30 30 30 30 30 31 32 32 32 31 30 29 27 25 25 25 25 25 25 25 26 26 26 26 26 26 25 25 24 25 25
28 28 29 30 30 30 29 28 27 26 25 25 25 26 25 25 24 24 24 24 24 25 25 24 24 24 24 24 25 25 25 25 25 25 23 22 21 20 20 20 19 20 20 20 20 21 22 23 24 26 27 28 29 29 29 29 29 29 30 31 31 32 32 31 30 29 27 25 24 24 24 25 25 25 26 26 26 26 26 26 25 25 24 24 25 26
28 30 30 30 29 28 28 26 25 24 23 23 23 23 24 24 24 24 24 23 22 22 22 22 23 23 23 23 23 23 24 25 25 25 24 23 22 21 20 19 19 19 20 20 20 21 22 23 25 26 28 29 29 29 29 29 29 29 30 31 31 31 31 30 28 26 24 24 24 24 24 25 25 25 26 26 26 26 26 25 25 24 24 24 25 26
29 30 30 29 27 25 24 24 23 23 22 22 22 22 23 24 25 25 24 23 22 21 21 21 22 23 23 22 21 21 23 25 26 25 24 23 22 21 20 20 20 20 21 21 22 22 23 24 26 27 28 29 30 30 29 29 29 29 30 30 30 30 29 27 26 24 23 23 24 24 24 25 25 26 26 26 26 25 25 24 24 24 25 25 26 26
30 30 29 27 25 24 22 22 23 23 22 22 22 22 21 22 22 23 24 24 23 22 21 21 21 22 22 22 21 21 22 24 25 25 24 23 22 21 20 20 21 22 23 24 24 24 25 26 27 29 30 30 31 31 30 29 29 29 29 29 29 28 27 25 24 23 23 23 24 24 25 25 26 26 26 26 26 25 24 24 24 25 26 26 26 26
30 29 27 24 23 23 22 23 23 23 22 21 21 21 21 19 20 21 22 24 25 24 23 23 22 21 21 21 21 21 21 22 23 23 22 22 22 21 22 22 23 24 26 26 26 27 27 28 29 30 31 31 31 31 30 29 28 28 28 28 27 26 24 23 22 23 23 23 24 24 25 25 26 26 26 26 25 25 24 24 25 25 25 25 25 25
28 26 24 23 23 23 23 23 22 21 20 20 20 21 20 20 20 21 23 24 24 24 24 24 23 22 21 21 21 22 21 22 22 22 21 21 21 22 23 24 25 27 28 28 28 28 28 29 30 31 31 32 32 31 30 28 27 27 26 26 25 24 22 21 22 23 23 24 24 25 25 26 26 26 26 25 25 24 24 24 25 25 25 24 24 24
25 23 23 22 22 22 21 21 20 19 19 21 21 21 21 22 22 22 23 23 23 23 23 23 23 22 22 22 22 22 21 21 21 21 20 21 22 23 24 26 27 29 30 30 30 30 29 30 30 31 31 31 31 30 29 27 25 25 25 24 23 21 20 21 22 23 24 24 25 26 26 27 27 27 26 25 24 24 24 24 24 24 24 23 24 24
22 22 21 21 21 21 21 21 22 22 21 21 21 21 23 23 23 22 22 22 23 22 22 22 22 23 22 21 21 21 20 19 19 19 20 21 22 24 25 26 27 29 30 31 31 30 29 29 30 30 31 31 31 29 27 25 24 23 23 22 21 20 20 21 22 23 24 25 26 26 27 27 27 27 26 25 25 24 24 24 24 24 23 24 24 24
22 21 21 22 22 22 22 23 23 22 22 22 22 23 23 23 22 22 22 22 22 21 21 22 23 23 22 21 19 18 18 17 18 19 20 21 22 23 24 25 26 28 30 30 30 29 29 29 29 30 31 31 30 29 26 23 21 21 20 19 19 19 20 22 23 24 25 25 26 26 26 26 26 26 25 25 25 24 24 24 23 23 23 23 24 24
21 21 21 22 23 23 23 23 22 22 23 23 23 23 22 21 22 22 21 21 21 22 22 21 21 22 21 20 18 16 16 17 18 19 21 22 23 24 25 26 27 29 29 29 28 28 28 28 29 30 31 31 30 28 24 22 20 19 19 18 18 19 21 22 23 24 25 25 25 25 25 25 25 25 24 24 24 24 23 23 23 23 23 24 24 25
20 21 22 23 24 24 23 22 23 24 23 23 23 22 22 22 22 22 22 22 22 23 22 21 20 20 20 20 19 17 18 19 21 23 24 25 26 27 27 27 27 27 27 28 27 27 27 28 29 30 31 31 30 27 24 22 20 19 19 19 19 20 21 22 23 23 24 24 24 24 24 24 24 24 24 24 24 23 23 23 23 23 24 25 25 26
22 23 24 24 24 24 24 24 24 24 24 23 22 22 23 23 23 22 22 23 23 23 22 21 20 20 21 21 22 23 23 24 24 26 27 28 29 28 27 26 25 25 26 26 27 27 27 28 29 30 31 31 29 28 25 23 21 20 20 20 20 21 21 22 22 23 23 23 23 24 24 24 24 24 24 24 24 23 23 23 23 24 24 25 26 27
24 24 24 23 23 24 25 25 24 24 24 23 23 24 26 26 26 25 25 26 25 24 23 22 22 23 24 23 23 24 25 25 25 27 29 29 29 27 25 23 22 22 24 26 26 26 27 28 29 30 30 30 29 27 26 24 22 22 21 21 21 21 21 21 21 22 22 23 23 24 24 24 24 24 24 24 24 24 24 24 24 24 25 25 26 27
25 25 24 23 24 25 26 25 25 24 24 24 25 26 27 28 28 27 27 26 25 23 22 22 23 24 25 24 24 26 27 28 29 30 30 29 27 26 24 20 19 19 22 24 25 26 26 27 29 29 29 29 28 27 26 25 24 23 22 21 20 20 19 20 20 21 22 23 23 24 24 25 25 25 25 24 24 24 24 24 24 25 25 25 26 26
25 25 25 24 25 25 26 26 25 25 24 25 26 26 26 26 26 26 26 26 25 25 24 24 24 25 26 28 30 31 31 30 30 30 29 27 25 23 21 18 17 19 22 23 25 25 26 27 28 29 28 28 27 26 25 25 25 24 22 20 19 18 18 19 20 21 22 22 23 24 24 25 25 25 25 24 24 24 24 24 24 24 24 25 26 26
24 25 26 26 26 26 25 25 25 25 25 25 25 24 24 24 25 27 28 28 27 27 28 29 30 31 32 33 33 32 30 29 29 28 26 24 22 21 19 18 19 21 22 23 24 25 26 27 28 28 27 27 26 26 26 26 26 24 22 19 18 17 17 18 19 20 21 22 23 23 24 24 24 24 24 24 23 23 23 23 23 23 24 25 25 26
24 25 26 26 26 25 25 24 24 24 25 25 25 24 24 25 26 26 26 27 28 29 30 31 33 34 34 33 30 28 27 28 27 26 24 22 21 20 19 19 20 21 21 23 24 25 26 27 27 26 26 26 26 26 27 27 27 25 22 19 18 17 17 18 18 20 20 21 22 22 23 23 23 23 23 22 22 22 22 22 22 23 24 25 26 27
24 24 24 24 25 25 25 25 25 24 24 24 25 27 29 29 29 28 29 29 29 29 29 29 30 30 29 27 24 23 24 26 26 24 21 20 20 20 19 18 18 18 20 22 23 24 24 25 26 26 25 25 25 26 27 28 27 25 22 19 18 17 17 18 18 19 20 21 21 22 22 22 22 22 21 21 21 21 21 21 22 23 25 26 27 29
24 24 24 24 25 26 27 27 26 24 23 24 27 31 33 32 31 31 30 29 27 26 25 25 25 25 24 23 21 21 22 24 24 22 19 18 18 19 19 17 17 17 19 21 22 23 24 25 26 25 24 24 25 26 28 29 28 25 22 19 18 18 18 18 19 19 20 20 20 21 21 21 20 20 20 20 20 20 21 22 23 24 26 27 29 30
23 23 23 24 25 26 27 27 26 24 23 25 28 31 33 32 31 30 28 26 25 25 25 24 24 24 23 22 20 19 20 23 22 20 17 17 18 18 18 17 16 16 18 20 22 22 23 24 24 24 23 23 25 28 30 30 28 24 21 19 18 18 18 19 19 19 19 19 19 20 19 19 19 19 19 19 20 20 21 23 24 26 27 29 30 31
23 23 24 24 25 26 26 26 26 27 28 30 32 33 34 33 31 29 27 26 25 24 24 24 24 24 23 21 19 19 20 21 20 18 16 17 18 18 17 16 16 16 18 20 22 23 23 22 22 21 22 24 27 30 31 31 28 25 21 20 19 19 19 19 19 18 18 18 18 18 18 18 18 19 19 20 21 22 23 24 26 27 28 29 30 31
24 25 25 25 26 27 28 30 31 33 34 35 35 34 33 31 28 27 26 25 24 23 22 23 24 24 23 21 20 19 18 16 15 15 16 17 17 17 16 15 15 16 17 19 22 24 24 22 21 21 23 26 29 31 32 32 29 26 22 20 20 20 20 20 19 18 17 17 17 17 17 17 18 18 19 20 22 23 25 26 27 28 29 29 30 30
26 27 27 27 28 30 31 32 33 34 35 34 33 31 29 27 25 24 24 24 23 22 22 23 23 23 22 20 18 15 11 9 11 14 17 17 16 15 15 15 16 16 16 18 20 22 24 25 25 24 25 28 30 32 32 31 29 27 24 22 21 21 21 20 19 18 17 16 16 16 16 17 18 19 20 21 23 25 26 27 28 28 28 28 29 30
28 28 28 29 30 31 30 30 30 30 31 31 29 27 25 23 22 22 23 23 23 22 22 22 23 22 21 18 14 10 7 8 12 16 17 16 16 16 16 16 16 16 15 15 16 18 21 25 27 28 28 29 30 31 32 31 29 27 25 24 23 23 22 21 20 18 17 16 16 16 16 17 18 20 22 23 25 26 27 28 28 28 27 27 28 29
26 26 28 30 30 30 28 26 24 24 25 25 25 24 22 21 21 21 22 22 23 22 21 21 21 21 20 17 13 10 9 10 13 16 17 16 17 17 18 17 17 16 16 15 15 16 18 21 25 29 30 31 31 32 32 30 28 27 26 26 26 25 24 22 21 19 18 17 17 17 18 19 21 22 24 25 26 27 28 28 27 27 26 26 27 27
26 26 27 28 28 27 25 22 21 20 20 21 21 21 21 21 20 20 20 21 21 20 19 19 20 20 19 16 13 11 11 11 13 16 17 17 17 18 18 17 16 17 17 17 17 17 17 20 24 28 31 32 33 33 32 30 28 26 26 26 27 26 25 23 22 21 20 19 19 19 21 22 23 25 26 27 27 28 28 27 26 25 24 24 24 24
26 26 26 26 25 23 21 20 19 19 18 18 19 20 21 20 19 19 18 18 18 17 17 17 18 18 16 12 11 11 11 11 13 16 17 18 18 18 18 17 17 17 18 19 19 19 19 21 24 26 29 33 34 34 31 29 27 26 26 27 27 27 26 25 23 22 22 21 22 23 24 26 27 27 28 28 29 28 28 27 25 22 21 20 20 21
24 24 24 23 22 21 20 20 20 19 18 18 18 19 20 20 19 17 16 16 15 15 15 16 17 16 14 11 10 10 11 11 14 16 17 18 18 18 18 18 17 18 18 20 20 21 21 23 24 25 27 31 33 33 31 28 27 26 26 26 27 27 26 25 24 23 23 24 25 26 27 29 29 30 30 30 29 28 27 25 22 20 17 16 16 17
23 23 22 21 21 20 20 21 21 20 20 19 19 19 19 19 18 16 15 14 14 14 14 15 15 14 13 12 11 11 12 13 15 16 17 18 19 19 19 19 19 19 19 20 21 21 22 24 26 27 27 28 30 31 31 29 27 26 27 27 26 26 25 24 24 24 25 26 27 28 29 30 30 30 30 29 28 26 24 21 19 16 15 14 14 14
23 23 22 21 21 21 21 22 21 21 20 20 20 20 19 18 16 15 13 13 13 13 13 14 13 13 12 12 12 12 13 14 16 17 18 19 19 19 19 20 20 19 19 20 21 22 23 25 26 28 28 27 27 29 30 29 28 27 28 27 27 26 24 23 24 24 26 27 29 30 30 30 30 30 29 28 26 23 20 18 16 15 14 14 14 15
23 23 22 22 22 22 22 22 22 21 21 20 20 20 19 17 15 14 12 12 12 12 12 13 13 13 12 12 12 13 14 15 17 18 19 19 19 19 19 20 20 20 20 20 21 22 23 24 25 26 27 28 28 29 29 28 28 28 28 27 26 25 24 24 24 25 26 28 29 30 30 30 29 28 27 25 23 21 19 17 16 16 17 18 19 19
22 22 22 22 22 22 22 22 21 21 20 20 20 19 18 16 15 13 12 12 12 12 12 12 13 13 13 12 13 14 15 17 18 19 19 20 19 19 19 20 21 21 22 22 23 23 23 23 23 24 25 27 28 29 28 27 27 27 28 27 25 24 23 24 25 26 27 29 30 30 30 29 27 26 25 23 21 20 19 19 19 20 21 23 24 25
22 22 22 22 21 21 21 21 20 20 19 18 18 18 16 15 14 13 12 12 12 12 12 12 13 13 13 13 14 15 16 18 19 20 20 20 20 20 20 20 21 22 23 24 25 25 24 23 24 24 24 25 26 27 27 27 26 26 27 27 26 26 24 25 26 27 28 29 30 30 29 27 25 24 22 20 20 20 20 21 22 22 24 26 28 29
22 22 22 21 21 21 20 20 19 18 16 16 16 16 14 13 12 12 11 11 11 10 10 11 11 12 13 14 15 16 17 18 19 20 20 20 20 20 20 21 22 23 24 25 26 26 25 24 24 24 24 24 24 25 26 26 25 25 25 25 26 26 26 26 27 28 29 29 29 28 27 25 23 22 20 19 19 19 21 22 23 24 25 26 27 28
21 21 21 20 20 20 19 19 17 16 14 15 15 14 12 11 11 10 8 7 8 8 9 10 11 12 13 14 15 17 19 20 20 20 20 20 20 20 20 21 22 23 25 26 26 26 25 23 22 22 22 22 22 23 24 24 23 23 23 24 25 27 27 27 27 28 29 29 28 26 24 23 22 21 19 19 19 20 21 22 23 23 24 24 25 26
20 20 20 19 19 18 18 16 15 14 13 13 13 12 10 9 8 6 4 4 6 8 9 10 11 13 13 14 14 16 19 21 22 21 20 20 20 20 21 22 23 24 25 25 25 24 23 21 20 20 20 20 20 21 22 22 22 22 22 23 24 26 27 28 29 30 30 29 26 24 23 22 21 20 19 19 20 21 21 22 22 21 21 22 22 22
19 19 18 18 17 16 15 14 14 13 13 12 12 11 9 7 6 5 4 5 6 8 9 11 13 14 14 14 15 16 19 21 22 22 21 21 21 22 22 23 24 24 24 23 22 21 20 19 18 18 18 18 18 19 19 20 21 22 22 23 23 24 25 28 30 31 30 28 25 23 22 22 21 20 19 19 20 21 21 21 20 20 19 19 19 20
17 17 17 16 15 14 13 13 12 12 12 12 11 9 8 6 5 5 4 5 7 9 11 13 15 16 15 15 17 18 20 20 20 21 21 22 23 23 24 25 25 24 23 21 19 18 17 17 17 16 16 16 16 16 17 19 20 22 23 23 23 25 26 28 30 31 30 27 24 22 21 21 21 21 20 20 20 20 20 20 20 19 19 18 19 19
17 16 16 15 14 13 12 12 12 13 13 12 10 8 7 6 5 5 5 6 7 10 13 15 16 16 15 16 18 20 20 20 19 19 20 21 23 24 25 25 25 24 21 19 16 15 14 15 15 15 15 15 15 15 16 18 20 21 23 23 24 26 27 29 30 30 28 25 23 22 22 21 22 22 22 20 19 19 19 19 19 19 19 19 19 19
16 16 16 15 14 13 12 12 12 13 13 12 10 8 6 6 6 6 6 7 10 12 14 16 16 16 15 16 17 18 19 20 20 20 21 22 24 24 25 25 24 22 20 17 15 14 14 13 12 13 13 14 15 16 16 18 19 21 23 24 25 27 29 30 30 28 26 23 22 22 22 22 23 23 23 21 19 18 18 18 18 18 19 19 19 20
17 16 16 15 14 13 12 12 12 12 12 11 9 7 6 6 6 6 7 10 12 14 15 16 16 16 15 15 16 18 18 19 19 20 21 23 25 26 26 25 23 21 19 17 15 14 13 12 11 11 11 13 14 16 18 19 20 21 23 24 26 28 29 30 29 27 24 22 21 22 23 24 24 24 24 23 21 20 19 19 19 19 20 20 20 20
17 16 16 15 14 13 12 12 11 11 11 10 9 7 6 7 7 8 9 12 14 15 16 16 17 16 16 16 16 17 18 18 18 19 20 23 25 27 27 25 24 22 20 18 17 16 14 13 11 10 10 12 14 16 19 20 21 22 23 24 26 28 30 30 28 25 22 21 20 21 22 22 23 23 24 24 24 23 21 21 21 21 21 21 21 21
16 16 16 16 14 13 12 11 11 10 9 9 8 7 7 7 8 9 11 13 15 15 16 17 17 17 17 16 17 17 17 17 18 19 20 23 25 27 27 25 24 23 22 21 20 18 17 14 12 11 11 13 15 17 19 21 22 23 24 25 26 28 29 29 27 24 21 20 20 20 21 21 21 22 23 24 24 23 23 22 22 22 22 22 22 22
16 16 16 15 15 13 12 11 9 8 7 7 7 7 6 7 7 9 11 13 15 15 16 17 17 17 16 16 16 16 16 17 17 18 20 23 25 26 25 25 24 24 24 23 22 21 19 17 14 12 11 13 16 18 19 21 23 24 25 26 26 27 28 27 25 22 20 20 20 20 20 21 21 21 22 23 23 24 24 23 23 23 23 22 22 22
Wind_Direction
303 305 304 303 302 301 302 304 305 306 307 308 308 309 309 310 311 312 313 313 313 313 312 312 312 312 312 312 311 310 308 307 305 304 302 301 299 297 295 294 294 295 296 299 301 303 306 310 313 313 312 311 311 312 312 312 311 310 309 307 306 305 303 303 302 301 300 300 302 303 304 305 305 305 305 305 304 303 302 303 303 303 304 304 303 302
304 305 305 305 304 303 304 305 306 306 307 308 308 309 310 310 311 312 313 313 313 312 312 312 312 312 312 312 311 310 309 307 305 304 302 300 299 297 295 294 293 294 296 298 300 302 306 310 313 314 313 314 314 315 315 315 313 311 309 307 305 304 303 302 301 300 299 300 301 303 304 304 304 305 305 304 304 303 303 303 304 304 304 303 303 303
303 303 302 302 303 304 305 307 307 307 307 307 308 309 310 311 312 312 313 313 313 312 311 311 311 311 312 312 311 310 309 307 305 303 302 300 298 297 295 293 293 294 295 297 299 301 306 310 314 316 316 317 317 317 316 314 313 311 310 307 305 303 301 300 299 299 298 299 300 301 302 303 304 304 304 304 304 304 304 304 304 303 303 302 303 304
301 300 300 300 301 302 304 306 307 307 307 307 308 310 311 312 312 312 313 313 313 313 312 311 311 311 311 311 312 311 310 307 305 303 301 300 298 296 294 293 293 293 294 296 297 301 306 311 315 317 317 317 317 316 315 314 312 311 309 307 305 302 300 299 298 297 297 298 299 301 302 303 303 303 303 303 303 304 304 304 303 302 302 302 302 303
300 298 298 299 300 302 304 305 306 306 307 308 309 310 311 312 312 312 313 313 313 313 312 311 310 310 310 311 312 312 310 307 305 302 300 298 297 295 293 292 292 292 293 295 297 302 307 312 315 316 316 316 316 316 314 313 311 309 308 306 304 302 300 298 297 297 297 298 300 301 303 303 303 303 303 303 304 304 303 303 302 302 302 303 303 303
298 297 298 298 299 301 303 304 305 306 307 308 309 309 310 310 310 310 311 311 310 310 309 308 308 308 308 309 311 312 311 309 306 303 300 298 296 294 292 291 291 291 293 295 299 304 309 313 314 315 315 315 315 315 314 312 310 307 305 304 302 301 300 299 298 298 298 299 300 302 303 303 303 303 303 304 304 304 303 303 302 302 303 303 304 304
297 297 298 299 299 301 301 302 303 304 304 305 306 306 306 306 307 307 306 306 305 305 305 304 303 304 305 307 309 311 311 311 309 306 303 300 297 295 293 291 291 291 294 298 302 307 310 312 312 313 314 314 314 314 313 311 309 306 304 302 301 300 299 298 298 298 298 300 301 302 302 302 302 302 303 303 303 303 302 302 302 302 302 303 304 304
295 297 298 298 299 300 300 301 301 302 301 301 301 302 302 302 302 302 302 301 301 301 301 301 301 301 300 302 304 306 308 309 309 308 306 303 300 297 294 292 291 292 295 300 304 307 310 311 312 313 313 313 313 313 313 311 309 306 304 302 301 300 299 298 298 298 298 300 301 302 301 302 302 302 302 302 302 301 301 301 302 302 303 304 304 303
294 296 297 298 299 300 301 300 300 300 300 298 297 297 299 299 299 300 300 299 298 298 298 299 299 299 297 297 298 300 303 304 306 308 308 305 302 298 294 291 290 292 295 300 304 307 310 312 313 313 313 313 314 314 314 313 310 308 305 303 302 300 299 298 298 299 300 301 302 302 302 302 302 302 301 301 301 301 301 302 302 303 303 304 303 302
294 296 298 299 299 298 298 298 298 298 298 296 294 293 294 297 300 301 301 301 300 298 297 296 296 297 297 295 295 296 299 301 304 307 308 307 304 300 295 290 289 290 294 299 304 308 311 313 314 313 313 314 315 317 317 315 312 309 306 304 302 300 299 299 299 300 301 302 302 302 302 302 302 302 301 301 301 302 302 303 303 303 303 302 301 301
295 297 298 298 298 297 295 295 296 298 298 297 296 295 295 298 301 303 303 303 303 300 298 296 295 295 295 294 293 293 295 298 301 305 308 309 308 305 300 295 292 292 295 299 304 308 312 314 314 314 314 315 318 320 320 317 314 310 306 303 301 300 299 299 299 301 302 302 302 302 302 302 302 302 302 302 302 303 303 303 303 302 302 301 300 300
296 297 297 297 297 297 296 297 299 301 302 301 301 301 302 300 302 303 301 301 301 300 299 297 295 294 293 292 293 294 294 296 299 302 305 307 309 310 307 303 300 299 299 301 305 308 311 313 314 314 315 318 320 322 321 318 313 309 305 302 300 298 298 299 300 302 303 302 302 303 302 302 302 302 302 303 303 303 302 302 301 300 299 299 300 300
296 297 297 297 297 298 299 301 303 303 303 303 302 301 301 300 300 300 297 296 296 297 298 298 297 295 294 293 293 294 294 295 297 299 301 302 305 307 308 307 306 305 305 305 306 308 311 312 313 315 316 318 321 322 321 317 312 307 303 300 298 297 298 299 301 303 303 303 302 302 302 301 301 301 302 302 302 302 301 300 298 298 298 298 299 301
296 296 297 297 297 298 301 302 302 299 298 299 298 297 297 299 299 298 297 295 295 297 298 298 297 296 296 295 295 295 293 292 293 293 294 295 298 302 305 305 306 307 308 308 308 309 311 312 313 314 316 318 320 321 319 315 309 304 300 298 297 297 300 302 303 303 303 302 301 300 299 298 298 298 299 300 300 300 299 298 297 296 297 298 300 302
294 295 295 294 294 295 297 299 298 297 296 296 297 298 299 299 299 298 296 296 297 299 300 299 299 298 296 295 298 299 294 289 285 284 286 288 293 298 301 302 304 306 308 308 309 310 311 312 313 313 314 316 319 320 319 314 308 302 298 297 298 300 303 303 303 303 302 300 299 297 296 296 296 296 297 297 297 297 296 295 294 295 297 300 302 302
293 292 291 291 292 294 296 298 298 298 298 299 299 299 299 298 297 296 296 298 300 301 302 302 301 300 298 298 300 301 295 285 278 278 282 285 290 294 297 299 300 302 305 306 308 310 312 312 312 312 314 317 320 322 321 315 309 304 300 300 303 305 305 304 303 301 299 297 296 295 295 295 296 296 296 296 296 296 296 296 297 299 301 303 303 303
293 293 292 291 292 294 296 298 299 299 299 300 299 298 296 295 296 298 298 298 299 300 301 301 300 299 299 301 301 297 290 283 279 279 283 286 290 293 296 297 298 299 302 305 307 309 311 311 312 313 315 318 322 325 324 320 314 309 307 307 308 306 303 301 299 297 295 294 294 294 295 296 297 298 299 299 300 301 301 302 303 304 304 304 304 303
293 291 291 292 293 294 297 298 300 301 300 299 298 297 295 295 297 298 297 296 295 295 296 295 292 291 293 296 298 295 288 286 286 287 289 291 294 297 298 298 298 299 301 305 308 310 311 311 312 314 316 320 324 328 328 325 321 317 315 313 309 305 301 298 296 295 294 294 295 296 297 298 300 301 302 303 303 304 304 304 304 304 303 303 303 303
289 289 291 292 294 296 298 299 300 300 299 298 297 296 296 296 297 296 294 293 292 290 288 285 284 286 289 290 291 291 290 289 290 292 294 296 298 300 300 299 298 298 301 305 308 310 311 312 313 315 317 321 326 329 330 328 325 321 318 314 310 305 301 298 297 296 297 297 298 299 300 302 303 303 304 304 304 304 303 302 301 301 301 301 301 301
288 289 290 292 295 297 297 297 297 297 297 297 298 297 296 296 296 295 295 295 292 288 284 283 283 285 288 288 288 288 291 293 294 295 297 298 299 299 300 298 296 297 300 304 308 310 311 312 313 315 318 322 326 329 330 328 325 322 318 315 311 307 303 301 300 299 299 299 300 301 302 303 304 304 305 304 304 303 302 302 301 300 300 300 300 300
288 289 290 293 295 295 295 296 296 297 298 299 299 297 294 294 295 295 295 295 292 289 287 286 287 290 292 290 289 290 292 294 295 296 298 298 298 298 299 297 295 295 298 303 307 310 310 311 313 316 320 324 327 328 327 325 323 321 319 316 312 308 305 303 302 301 301 301 302 302 303 304 304 305 305 305 304 304 303 303 302 301 301 301 301 301
289 289 291 292 293 293 294 295 297 300 302 302 299 294 292 293 294 296 297 297 296 295 295 295 297 298 299 298 297 298 299 298 298 298 299 296 295 296 298 295 293 294 297 302 306 309 311 313 316 319 322 325 326 325 324 323 322 322 321 318 314 310 307 306 305 304 303 303 303 304 304 305 305 305 306 306 306 305 305 304 303 303 303 303 303 303
289 290 292 293 294 295 296 297 301 305 306 303 299 295 295 296 298 300 302 303 303 303 303 304 305 306 306 308 309 308 306 305 304 304 302 295 293 294 297 295 296 297 299 303 307 311 313 316 319 321 323 324 324 323 321 322 323 324 323 321 318 315 312 310 308 307 306 305 305 306 306 306 306 307 307 307 307 307 307 306 306 305 304 304 304 303
292 293 295 297 299 300 299 300 302 305 306 304 303 303 305 306 307 308 309 309 308 306 306 306 307 308 309 311 312 310 306 307 309 308 303 296 294 296 299 300 300 301 302 305 309 313 315 318 320 321 322 322 321 321 321 323 325 326 326 324 322 320 318 316 313 311 310 309 308 308 308 308 308 308 309 309 309 309 309 308 308 307 306 305 304 304
295 296 298 300 300 299 296 295 295 296 297 299 302 305 308 310 310 309 308 307 306 306 306 306 307 307 308 309 307 302 297 302 306 306 302 298 299 302 304 304 303 302 303 308 312 315 316 317 319 321 321 321 320 320 321 324 327 328 328 327 326 325 324 322 319 316 314 313 312 311 310 310 310 310 311 311 311 311 311 310 309 309 308 307 306 305
297 298 299 299 297 292 288 285 284 284 286 292 298 304 308 309 309 309 308 307 307 307 306 305 304 304 305 305 302 295 290 296 300 302 301 302 305 307 308 308 306 304 305 309 313 315 315 316 318 320 320 319 319 320 322 326 328 329 329 328 328 329 329 327 324 320 318 316 314 313 312 312 312 312 312 313 313 312 312 311 311 310 310 310 309 308
298 298 297 296 294 290 287 285 283 283 287 294 300 304 306 307 307 307 306 306 306 306 304 302 302 302 302 302 298 291 287 291 296 300 304 308 310 310 310 310 309 307 307 310 312 313 314 315 317 318 318 318 318 321 325 329 331 332 331 331 331 332 332 330 327 323 320 317 315 314 313 313 312 313 313 313 314 313 313 313 313 314 314 313 312 311
298 297 297 296 295 294 293 293 293 294 297 300 302 303 303 304 304 303 302 303 303 303 302 300 300 300 300 298 294 289 287 291 296 303 309 314 314 312 311 312 311 310 310 311 313 315 315 315 316 317 317 318 320 324 328 332 334 335 334 333 333 334 334 332 329 326 322 319 316 314 313 313 312 313 313 314 314 315 315 316 317 318 318 316 315 313
299 298 298 298 297 296 296 296 297 298 299 300 301 302 303 303 302 301 301 302 303 302 300 299 299 299 298 295 291 289 289 291 297 305 313 317 316 313 312 312 312 313 315 315 316 317 317 317 317 317 318 321 323 326 330 333 335 336 337 336 336 335 335 334 331 327 323 320 317 315 313 313 313 314 315 316 316 317 318 320 321 321 320 317 315 313
302 302 301 300 300 300 300 300 300 300 301 302 304 305 305 305 303 301 301 303 302 300 298 299 299 298 295 292 290 291 293 292 298 307 316 319 317 313 313 313 314 316 318 318 318 318 318 319 320 320 321 323 325 327 329 332 335 337 338 338 337 337 337 335 333 329 325 321 318 316 315 314 315 316 317 318 319 320 321 322 323 322 319 316 314 312
305 304 303 303 304 305 306 305 306 306 307 309 310 310 309 306 303 301 300 299 298 297 297 299 300 297 292 288 289 296 300 296 302 311 319 320 317 314 314 316 317 318 319 319 317 316 316 318 320 323 324 324 325 326 328 331 333 335 337 337 337 337 337 337 334 331 328 324 321 319 319 319 319 320 321 321 321 322 322 323 323 322 318 315 313 311
307 306 306 307 309 311 312 311 310 311 313 314 315 315 312 309 305 301 298 296 296 296 298 299 298 294 288 285 287 294 299 301 307 314 320 320 318 316 318 318 318 318 318 317 314 312 311 312 316 320 323 323 323 325 328 330 332 334 335 335 335 336 338 338 337 334 332 329 326 325 324 324 324 324 324 324 324 324 324 324 324 322 318 315 312 310
312 311 313 315 317 318 319 317 316 315 317 318 318 318 316 314 310 305 301 298 297 298 299 299 295 289 285 286 291 299 306 308 311 314 318 319 319 319 319 319 318 317 318 317 315 311 308 308 312 317 320 322 323 325 327 330 332 333 333 332 333 335 338 339 339 337 336 334 333 331 330 329 328 327 327 327 327 326 326 325 324 322 318 315 312 310
318 320 321 323 324 325 324 323 322 321 321 320 319 319 319 319 317 313 308 304 302 301 301 298 291 285 283 291 304 313 316 313 311 313 317 320 320 320 320 319 317 316 317 317 317 315 312 311 312 315 318 321 323 326 327 328 330 331 332 332 333 335 338 340 340 340 339 339 338 337 336 334 333 332 331 331 330 329 328 327 325 323 319 315 313 311
324 325 327 328 328 327 326 326 326 326 324 322 321 321 322 323 322 319 315 311 310 308 306 299 291 286 286 297 309 314 313 309 308 312 318 321 322 322 321 319 318 318 318 318 318 317 315 314 314 314 316 318 322 325 327 328 328 330 332 333 334 335 337 340 341 342 342 342 342 341 340 338 337 335 334 333 332 331 329 328 328 326 324 320 317 315
326 328 329 328 327 327 327 327 328 327 325 324 323 323 324 325 324 322 319 318 318 316 311 303 297 294 296 302 309 312 311 310 311 315 319 322 323 323 321 320 320 320 319 318 318 316 315 315 315 315 316 316 318 322 326 329 330 331 332 334 335 336 339 342 343 343 344 344 343 342 341 340 338 336 335 334 333 332 332 333 334 334 332 330 328 326
328 329 329 328 327 327 327 327 327 326 325 323 323 324 324 324 323 322 321 322 324 323 317 310 306 306 307 310 313 314 315 315 316 318 321 323 323 323 322 321 321 321 319 317 316 316 315 314 315 316 316 315 315 317 322 327 331 332 333 335 336 338 341 344 345 345 344 344 344 343 341 340 338 336 335 334 335 336 339 343 347 349 347 347 348 349
329 330 329 328 328 328 327 327 326 324 323 322 322 322 323 323 322 321 321 323 325 325 321 317 315 314 314 315 316 316 316 316 317 319 322 323 324 323 322 321 321 321 319 317 316 315 315 314 313 314 315 315 316 318 320 324 326 328 332 335 338 340 343 345 346 346 345 345 344 343 341 339 337 336 336 338 341 345 350 357 2 4 4 5 8 10
327 328 328 328 328 327 327 326 325 323 322 321 321 322 322 322 322 321 321 323 324 323 321 318 317 316 316 316 316 316 316 317 319 321 322 323 323 322 322 321 320 320 320 319 318 317 315 313 311 310 311 312 315 319 322 322 323 325 330 335 339 342 345 346 347 347 346 345 343 342 340 339 338 338 340 344 349 355 0 5 10 12 13 14 16 19
325 326 327 327 327 327 326 325 324 323 322 322 322 323 324 324 325 325 325 325 324 322 320 318 317 317 317 317 316 317 318 320 322 323 323 323 323 322 321 321 320 320 320 321 321 320 317 314 312 311 310 310 312 315 318 320 322 326 330 333 337 341 346 348 348 347 346 344 342 341 341 341 342 344 347 352 357 2 6 10 13 15 17 16 16 17
323 325 326 327 327 327 327 326 326 326 324 325 326 328 329 331 332 334 333 330 326 323 321 320 318 317 317 318 319 320 322 323 324 324 324 323 323 322 322 321 321 321 321 322 322 322 320 317 314 312 311 311 312 314 316 319 324 328 332 333 335 339 344 348 348 347 345 344 344 344 345 346 347 350 354 360 5 10 14 15 16 17 19 19 18 16
323 325 326 327 328 329 330 330 330 329 328 330 332 334 337 339 342 343 339 329 324 323 323 319 316 315 318 322 324 324 325 326 327 326 325 325 324 324 324 324 323 323 324 324 324 323 322 320 317 315 313 313 312 313 315 322 328 332 334 335 336 339 343 347 348 347 345 345 347 349 350 351 353 357 1 7 12 18 22 23 22 22 21 21 20 19
324 326 327 329 332 333 335 335 334 332 331 335 340 346 349 350 351 350 337 320 319 322 319 314 314 319 326 329 328 325 326 328 329 329 329 328 328 328 328 327 327 328 327 327 327 326 325 323 320 318 317 316 315 315 317 325 332 336 337 338 338 337 337 342 346 348 349 350 352 355 356 357 359 2 7 12 18 23 26 27 28 27 25 23 21 18
327 328 331 334 336 338 339 337 334 332 335 343 351 356 359 359 359 355 339 328 327 322 315 314 319 327 334 333 328 326 327 330 332 333 333 333 333 333 333 333 333 333 333 333 331 330 329 327 325 322 321 320 320 322 325 330 334 337 339 340 339 337 334 338 344 348 351 354 358 1 2 2 4 7 12 17 23 26 28 28 28 28 26 23 20 16
331 333 336 339 341 340 337 332 330 333 343 351 356 359 1 4 10 10 359 345 331 320 315 319 328 334 336 332 329 330 332 334 335 336 337 338 338 338 339 338 338 338 338 338 336 334 332 331 329 328 327 326 328 330 333 335 336 338 341 342 342 342 342 345 347 348 350 355 1 6 7 8 9 11 15 19 24 28 29 28 26 25 22 20 17 14
338 339 341 341 341 338 334 330 331 338 346 350 353 355 0 10 17 16 1 341 325 319 320 327 335 338 335 332 332 333 336 338 338 339 339 340 341 342 342 341 341 341 341 342 343 342 340 336 334 334 334 334 336 339 340 340 338 339 342 344 345 345 347 349 350 351 353 357 2 8 12 13 13 14 15 19 22 25 26 24 22 20 17 14 11 10
342 343 344 342 339 336 333 332 334 339 344 347 348 351 359 11 16 8 349 330 323 323 329 335 339 338 335 333 333 335 337 339 340 342 343 344 344 344 343 343 344 345 346 348 349 349 347 345 343 341 341 340 340 342 343 344 343 342 343 345 347 347 348 349 352 355 358 1 6 11 15 16 15 15 17 18 19 19 20 18 16 13 11 8 6 6
345 347 346 342 337 333 331 329 331 337 343 347 348 351 358 8 8 356 338 327 326 330 335 338 338 337 335 334 333 335 338 339 341 343 344 346 346 346 346 346 347 350 352 354 355 355 355 354 353 351 348 346 343 343 345 347 347 346 346 346 347 348 348 351 354 358 2 7 12 17 19 18 15 14 14 15 15 15 14 13 11 9 7 5 4 4
346 348 346 342 336 330 325 323 326 333 342 347 350 351 357 1 356 344 332 328 329 333 335 336 337 338 337 336 336 337 339 341 342 343 344 346 347 348 349 350 351 353 355 358 360 1 2 2 2 0 357 354 349 346 347 349 349 347 347 347 348 348 349 351 355 0 6 12 19 22 23 21 18 15 12 9 8 9 10 9 8 8 6 5 3 2
346 347 344 341 335 327 321 318 322 330 340 346 349 350 351 350 343 333 327 328 331 334 335 336 338 339 340 339 340 341 342 343 344 344 345 346 348 349 350 352 354 356 358 359 2 5 6 6 4 2 1 359 355 351 349 348 348 348 347 348 348 348 349 351 356 2 9 17 22 25 25 23 21 18 13 7 5 4 5 6 7 7 6 4 2 1
347 346 343 339 333 325 318 314 316 323 333 341 344 343 342 338 332 327 326 329 332 334 335 337 339 341 342 342 342 343 344 345 345 345 345 347 349 350 351 353 355 357 359 359 1 3 5 4 2 359 358 356 356 354 350 348 347 347 347 347 348 349 350 352 356 3 12 19 24 25 23 21 19 17 13 9 4 2 2 2 4 5 5 2 360 358